Location: Caucaguita
(10.3578°N, 66.8025°W)
Time: 02:05:27
(UTC+00:00)

Cosmos 2369 Rocket - Pass Details

Date: 18 November 2025
Orbit: 826 x 853 km, 71.0° (Epoch: 09 December)

Event Time Altitude Azimuth Distance (km) Brightness Sun altitude
Rises 22:39:53 0° 194° (SSW) 3,353 5.8 -9.8°
Reaches altitude 10° 22:42:18 10° 193° (SSW) 2,421 5.0 -10.4°
Maximum altitude 22:47:51 83° 105° (ESE) 835 2.1 -11.7°
Drops below altitude 10° 22:53:25 10° 18° (NNE) 2,428 4.3 -13.0°
Enters shadow 22:55:44 - 18° (NNE) 3,319 5.0 -13.5°
